When you browse on this site, cookies collect data to enhance your experience and personalize the content and advertising you see.
Visit our Privacy Policy to learn more. By continuing to use the site, you agree to this use of cookies and data.
  • In Sweden
  • List of Countries
  • For 7 days
  • Water Temperature
  • Weather Map
  • Weather Widgets
  • user-avatar
    Login

    Hourly Weather Litin

    Today, 21 September, Saturday

    Time Temperature Precipitation Wind Pressure Humidity
    00:00 +2°C° 0 mm 3 mps 741 mmHg 88%
    01:00 +2°C° 0 mm 3 mps 742 mmHg 89%
    02:00 +1°C° 0 mm 4 mps 742 mmHg 90%
    03:00 +1°C° 0 mm 3 mps 742 mmHg 90%
    04:00 +1°C° 0 mm 3 mps 742 mmHg 91%
    05:00 0°C° 0 mm 3 mps 742 mmHg 91%
    06:00 +2°C° 0 mm 3 mps 743 mmHg 86%
    07:00 +3°C° 0 mm 3 mps 743 mmHg 80%
    08:00 +4°C° 0 mm 3 mps 743 mmHg 74%
    09:00 +7°C° 0 mm 4 mps 743 mmHg 64%
    10:00 +10°C° 0 mm 4 mps 743 mmHg 53%
    11:00 +12°C° 0 mm 4 mps 743 mmHg 43%
    12:00 +12°C° 0 mm 5 mps 743 mmHg 44%
    13:00 +13°C° 0 mm 5 mps 743 mmHg 44%
    14:00 +14°C° 0 mm 5 mps 742 mmHg 45%
    15:00 +13°C° 0 mm 5 mps 742 mmHg 52%
    16:00 +11°C° 0 mm 6 mps 741 mmHg 59%
    17:00 +10°C° 0 mm 6 mps 741 mmHg 65%
    18:00 +10°C° 0 mm 5 mps 741 mmHg 68%
    19:00 +9°C° 0 mm 5 mps 741 mmHg 71%
    20:00 +10°C° 0 mm 4 mps 741 mmHg 74%
    21:00 +9°C° 0 mm 5 mps 741 mmHg 75%
    22:00 +10°C° 0 mm 5 mps 741 mmHg 76%
    23:00 +10°C° 0 mm 5 mps 741 mmHg 77%

    Tomorrow, 22 September, Sunday

    Time Temperature Precipitation Wind Pressure Humidity
    00:00 +10°C° 0 mm 5 mps 740 mmHg 76%
    01:00 +10°C° 0 mm 5 mps 740 mmHg 75%
    02:00 +10°C° 0 mm 5 mps 740 mmHg 74%
    03:00 +10°C° 0 mm 5 mps 740 mmHg 73%
    04:00 +10°C° 0 mm 5 mps 740 mmHg 73%
    05:00 +9°C° 0 mm 5 mps 739 mmHg 72%
    06:00 +10°C° 0 mm 5 mps 740 mmHg 70%
    07:00 +10°C° 0 mm 5 mps 740 mmHg 68%
    08:00 +12°C° 0 mm 5 mps 740 mmHg 65%
    09:00 +13°C° 0 mm 5 mps 740 mmHg 61%
    10:00 +15°C° 0 mm 6 mps 740 mmHg 58%
    11:00 +17°C° 0 mm 6 mps 740 mmHg 54%
    12:00 +19°C° 0 mm 6 mps 739 mmHg 52%
    13:00 +20°C° 0 mm 5 mps 739 mmHg 49%
    14:00 +21°C° 0 mm 5 mps 738 mmHg 47%
    15:00 +20°C° 0 mm 5 mps 738 mmHg 50%
    16:00 +20°C° 0 mm 4 mps 738 mmHg 52%
    17:00 +19°C° 0 mm 3 mps 737 mmHg 54%
    18:00 +17°C° 0 mm 3 mps 737 mmHg 61%
    19:00 +14°C° 0 mm 3 mps 738 mmHg 68%
    20:00 +12°C° 0 mm 3 mps 738 mmHg 74%
    21:00 +12°C° 0 mm 3 mps 738 mmHg 77%
    22:00 +11°C° 0 mm 3 mps 738 mmHg 80%
    23:00 +12°C° 0 mm 2 mps 738 mmHg 82%

    Day after tomorrow, 23 September, Monday

    Time Temperature Precipitation Wind Pressure Humidity
    00:00 +10°C° 0 mm 2 mps 738 mmHg 84%
    01:00 +10°C° 0 mm 2 mps 738 mmHg 86%
    02:00 +10°C° 0 mm 2 mps 738 mmHg 88%
    03:00 +9°C° 0 mm 2 mps 738 mmHg 89%
    04:00 +10°C° 0 mm 1 mps 738 mmHg 91%
    05:00 +9°C° 0 mm 1 mps 738 mmHg 93%
    06:00 +9°C° 0 mm 2 mps 738 mmHg 90%
    07:00 +12°C° 0 mm 2 mps 739 mmHg 87%
    08:00 +13°C° 0 mm 2 mps 739 mmHg 84%
    09:00 +14°C° 0 mm 2 mps 739 mmHg 77%
    10:00 +16°C° 0 mm 3 mps 739 mmHg 70%
    11:00 +18°C° 0 mm 3 mps 739 mmHg 62%
    12:00 +18°C° 0 mm 3 mps 739 mmHg 60%
    13:00 +19°C° 0 mm 3 mps 738 mmHg 57%
    14:00 +19°C° 0 mm 3 mps 738 mmHg 55%
    15:00 +19°C° 0 mm 3 mps 738 mmHg 56%
    16:00 +18°C° 0 mm 4 mps 737 mmHg 58%
    17:00 +18°C° 0 mm 4 mps 737 mmHg 60%
    18:00 +15°C° 0 mm 4 mps 737 mmHg 65%
    19:00 +13°C° 0 mm 4 mps 737 mmHg 71%
    20:00 +11°C° 0 mm 4 mps 737 mmHg 76%
    21:00 +11°C° 0 mm 4 mps 737 mmHg 77%
    22:00 +10°C° 0 mm 4 mps 737 mmHg 77%
    23:00 +10°C° 0 mm 4 mps 737 mmHg 78%

    24 September, Tuesday

    Time Temperature Precipitation Wind Pressure Humidity
    00:00 +10°C° 0 mm 4 mps 736 mmHg 78%
    01:00 +8°C° 0 mm 4 mps 736 mmHg 78%
    02:00 +8°C° 0 mm 4 mps 736 mmHg 78%
    03:00 +9°C° 0 mm 3 mps 736 mmHg 78%
    04:00 +9°C° 0 mm 3 mps 735 mmHg 78%
    05:00 +9°C° 0 mm 2 mps 735 mmHg 78%
    06:00 +12°C° 0 mm 2 mps 735 mmHg 74%
    07:00 +12°C° 0 mm 3 mps 735 mmHg 71%
    08:00 +13°C° 0 mm 3 mps 735 mmHg 67%
    09:00 +14°C° 0 mm 4 mps 735 mmHg 66%
    10:00 +15°C° 0 mm 4 mps 736 mmHg 65%
    11:00 +17°C° 0 mm 5 mps 736 mmHg 64%
    12:00 +17°C° 0.1 mm 4 mps 735 mmHg 69%
    13:00 +15°C° 0.1 mm 4 mps 735 mmHg 74%
    14:00 +14°C° 0.1 mm 3 mps 734 mmHg 80%
    15:00 +15°C° 0 mm 2 mps 734 mmHg 80%
    16:00 +15°C° 0 mm 2 mps 734 mmHg 80%
    17:00 +15°C° 0 mm 1 mps 734 mmHg 80%
    18:00 +14°C° 0 mm 1 mps 734 mmHg 81%
    19:00 +14°C° 0 mm 1 mps 734 mmHg 82%
    20:00 +13°C° 0 mm 1 mps 734 mmHg 83%
    21:00 +13°C° 0 mm 1 mps 734 mmHg 82%
    22:00 +13°C° 0 mm 1 mps 734 mmHg 82%
    23:00 +13°C° 0 mm 2 mps 734 mmHg 81%

    25 September, Wednesday

    Time Temperature Precipitation Wind Pressure Humidity
    00:00 +13°C° 0 mm 2 mps 734 mmHg 81%
    01:00 +13°C° 0 mm 1 mps 734 mmHg 81%
    02:00 +13°C° 0 mm 1 mps 734 mmHg 81%
    03:00 +13°C° 0 mm 1 mps 734 mmHg 83%
    04:00 +13°C° 0 mm 1 mps 734 mmHg 85%
    05:00 +12°C° 0 mm 2 mps 734 mmHg 86%
    06:00 +13°C° 0 mm 2 mps 734 mmHg 85%
    07:00 +14°C° 0 mm 2 mps 734 mmHg 84%
    08:00 +14°C° 0 mm 2 mps 734 mmHg 83%
    09:00 +15°C° 0.1 mm 2 mps 734 mmHg 79%
    10:00 +17°C° 0.1 mm 3 mps 734 mmHg 75%
    11:00 +18°C° 0.1 mm 3 mps 734 mmHg 71%
    12:00 +18°C° 0.3 mm 3 mps 734 mmHg 69%
    13:00 +19°C° 0.3 mm 3 mps 734 mmHg 67%
    14:00 +19°C° 0.3 mm 3 mps 733 mmHg 65%
    15:00 +19°C° 0.8 mm 3 mps 733 mmHg 69%
    16:00 +18°C° 0.8 mm 3 mps 733 mmHg 74%
    17:00 +17°C° 0.8 mm 3 mps 732 mmHg 78%
    18:00 +16°C° 0.4 mm 2 mps 732 mmHg 81%
    19:00 +16°C° 0.4 mm 2 mps 732 mmHg 83%
    20:00 +15°C° 0.4 mm 2 mps 732 mmHg 85%
    21:00 +15°C° 0.6 mm 2 mps 732 mmHg 87%
    22:00 +15°C° 0.6 mm 2 mps 732 mmHg 90%
    23:00 +15°C° 0.6 mm 2 mps 732 mmHg 92%

    26 September, Thursday

    Time Temperature Precipitation Wind Pressure Humidity
    00:00 +15°C° 0.4 mm 2 mps 732 mmHg 92%
    01:00 +15°C° 0.4 mm 2 mps 731 mmHg 93%
    02:00 +14°C° 0.4 mm 2 mps 731 mmHg 93%
    03:00 +14°C° 0.6 mm 2 mps 731 mmHg 94%
    04:00 +14°C° 0.6 mm 2 mps 731 mmHg 95%
    05:00 +14°C° 0.6 mm 2 mps 731 mmHg 96%
    06:00 +14°C° 0.2 mm 2 mps 731 mmHg 95%
    07:00 +15°C° 0.2 mm 2 mps 731 mmHg 93%
    08:00 +14°C° 0.2 mm 3 mps 731 mmHg 92%
    09:00 +16°C° 0.3 mm 2 mps 731 mmHg 86%
    10:00 +17°C° 0.3 mm 2 mps 731 mmHg 80%
    11:00 +18°C° 0.3 mm 2 mps 731 mmHg 74%
    12:00 +19°C° 0.4 mm 2 mps 731 mmHg 72%
    13:00 +19°C° 0.4 mm 3 mps 731 mmHg 69%
    14:00 +19°C° 0.4 mm 3 mps 730 mmHg 67%
    15:00 +19°C° 0.1 mm 2 mps 730 mmHg 70%
    16:00 +18°C° 0.1 mm 2 mps 730 mmHg 72%
    17:00 +19°C° 0.1 mm 1 mps 730 mmHg 74%
    18:00 +18°C° 0.3 mm 1 mps 730 mmHg 78%
    19:00 +16°C° 0.3 mm 1 mps 730 mmHg 82%
    20:00 +15°C° 0.3 mm 1 mps 731 mmHg 86%
    21:00 +15°C° 0.2 mm 1 mps 731 mmHg 87%
    22:00 +15°C° 0.2 mm 2 mps 731 mmHg 89%
    23:00 +14°C° 0.2 mm 2 mps 731 mmHg 90%
    Show more